Preview of NWS' New Version of Forecast
This preview is not operational and should not be used for support decisions.

Regional Weather Roundup (RWR)

Issued by National Weather Service (NWS)

                            
000
ASUS45 KABQ 191901
RWRNM 
NEW MEXICO REGIONAL WEATHER ROUNDUP
NATIONAL WEATHER SERVICE ALBUQUERQUE NM
100 PM MDT FRI APR 19 2019

NOTE: "FAIR" MEANS FEW OR NO CLOUDS BELOW 12,000 FEET AGL WITH NO
       SIGNIFICANT WEATHER OR OBSTRUCTIONS TO VISION.

      THIS PRODUCT IS RELEASED AS TWO VERSIONS.  ONE VERSION NEAR
      THE TOP OF THE HOUR CONTAINING PRELIMINARY DATA FROM ALBUQUERQUE
      AND OTHER STATIONS.  A FINAL VERSION WITH ADDITIONAL DATA IS 
      ISSUED ABOUT 10 MINUTES AFTER THE HOUR.
 
NMZ501-503-504-510>518-192000-
NORTHWEST PLATEAU/NORTHCENTRAL MOUNTAINS
  
CITY           SKY/WX    TMP DP  RH WIND       PRES   REMARKS
FARMINGTON     FAIR      72  25  17 SW10G16   30.20F                  
LOS ALAMOS       N/A     61  23  22 E5        30.29F                  
SANTA FE       FAIR      68  28  22 SW12G20   30.24F                  
TAOS           FAIR      65  21  18 W9G20     30.28F                  

$$
NMZ402-403-502-505>509-192000-
WESTCENTRAL MOUNTAINS/SOUTHWEST MOUNTAINS
  
CITY           SKY/WX    TMP DP  RH WIND       PRES   REMARKS
GALLUP         FAIR      71  17  12 NE8G17    30.27F                  
GRANTS         FAIR      68  17  14 N6        30.29F                  
SILVER CITY    FAIR      74  19  12 SW5G16    30.24F                  

$$
NMZ407-409-411-412-192000-
SOUTHERN DESERTS
  
CITY           SKY/WX    TMP DP  RH WIND       PRES   REMARKS
DEMING         FAIR      78  24  13 VRB5      30.18F                  
HOLLOMAN AFB   FAIR      73  34  24 SW5       30.22F                  
ALAMOGORDO     FAIR      72  32  23 SW5       30.22F                  
T OR C         FAIR      76  18  11 E9        30.19F                  

$$
NMZ519>523-192000-
CENTRAL VALLEYS/CENTRAL HIGHLANDS
  
CITY           SKY/WX    TMP DP  RH WIND       PRES   REMARKS
ALBUQUERQUE    FAIR      68  28  22 CALM      30.24F                  
DOUBLE EAGLE   SUNNY     64  32  29 S5        30.27F                  
CLINES CORNERS FAIR      65  20  17 NW5G20    30.28F                  
BELEN          FAIR      67  32  26 CALM      30.25F                  
SOCORRO        NOT AVBL                                               

$$
NMZ524>526-539-540-192000-
SOUTHCENTRAL MOUNTAINS
  
CITY           SKY/WX    TMP DP  RH WIND       PRES   REMARKS
RUIDOSO        FAIR      66  16  14 W9G18     30.31S                  

$$
NMZ527>531-192000-
NORTHEAST HIGHLANDS/NORTHEAST PLAINS
  
CITY           SKY/WX    TMP DP  RH WIND       PRES   REMARKS
LAS VEGAS      FAIR      66  28  24 S8        30.23F                  
RATON          FAIR      67  30  25 VRB7      30.18F                  
CLAYTON        FAIR      65  34  31 S8G17     30.17F                  

$$
NMZ532>537-192000-
EASTCENTRAL PLAINS
  
CITY           SKY/WX    TMP DP  RH WIND       PRES   REMARKS
SANTA ROSA     FAIR      69  31  24 S13G20    30.19F                  
TUCUMCARI      FAIR      69  36  29 SW8G17    30.16F                  
CANNON AFB     FAIR      65  31  28 CALM      30.22F                  
CLOVIS AIRPORT FAIR      65  31  28 SW8       30.22F                  

$$
NMZ028-029-538-192000-
SOUTHEAST PLAINS
  
CITY           SKY/WX    TMP DP  RH WIND       PRES   REMARKS
ROSWELL        FAIR      69  32  25 S8G22     30.20F                  
ARTESIA        FAIR      70  32  24 S16       30.22F                  
CARLSBAD       FAIR      69  31  24 S13G20    30.21F                  
HOBBS          SUNNY     66  25  20 VRB6      30.24F                  


$$